When you browse on this site, cookies collect data to enhance your experience and personalize the content and advertising you see.
Visit our Privacy Policy to learn more. By continuing to use the site, you agree to this use of cookies and data.
  • En España
  • Lista de países
  • Para 7 días
  • Temperatura del agua
  • Mapa Satelital
  • El tiempo en el mapa
  • Informadores
  • user-avatar
    Iniciar sesión

    Tiempo cada hora Krupets'

    Hoy, 23 Mayo, Jueves

    Tiempo Temperatura Precipitaciones Viento Presión Humedad
    00:00 +15°C° 0 mm 1 mps 742 mmHg 91%
    01:00 +15°C° 0 mm 1 mps 742 mmHg 91%
    02:00 +14°C° 0 mm 1 mps 742 mmHg 91%
    03:00 +14°C° 0 mm 1 mps 742 mmHg 91%
    04:00 +15°C° 0 mm 1 mps 742 mmHg 91%
    05:00 +15°C° 0 mm 1 mps 742 mmHg 92%
    06:00 +16°C° 0 mm 1 mps 742 mmHg 86%
    07:00 +19°C° 0 mm 1 mps 742 mmHg 81%
    08:00 +21°C° 0 mm 1 mps 742 mmHg 75%
    09:00 +22°C° 0 mm 1 mps 742 mmHg 70%
    10:00 +23°C° 0 mm 1 mps 742 mmHg 65%
    11:00 +24°C° 0 mm 1 mps 742 mmHg 59%
    12:00 +25°C° 0 mm 1 mps 742 mmHg 57%
    13:00 +25°C° 0 mm 2 mps 742 mmHg 56%
    14:00 +26°C° 0 mm 2 mps 742 mmHg 54%
    15:00 +25°C° 0.2 mm 2 mps 741 mmHg 57%
    16:00 +25°C° 0.2 mm 2 mps 741 mmHg 60%
    17:00 +25°C° 0.2 mm 2 mps 741 mmHg 63%
    18:00 +23°C° 0.5 mm 2 mps 741 mmHg 69%
    19:00 +20°C° 0.5 mm 2 mps 741 mmHg 75%
    20:00 +19°C° 0.5 mm 2 mps 741 mmHg 80%
    21:00 +19°C° 0.8 mm 1 mps 742 mmHg 82%
    22:00 +19°C° 0.8 mm 1 mps 742 mmHg 83%
    23:00 +18°C° 0.8 mm 1 mps 742 mmHg 85%

    Mañana, 24 Mayo, Viernes

    Tiempo Temperatura Precipitaciones Viento Presión Humedad
    00:00 +18°C° 0 mm 1 mps 742 mmHg 85%
    01:00 +18°C° 0 mm 1 mps 742 mmHg 86%
    02:00 +16°C° 0 mm 1 mps 742 mmHg 86%
    03:00 +16°C° 0 mm 1 mps 742 mmHg 87%
    04:00 +16°C° 0 mm 1 mps 742 mmHg 87%
    05:00 +16°C° 0 mm 1 mps 742 mmHg 88%
    06:00 +19°C° 0 mm 1 mps 742 mmHg 83%
    07:00 +21°C° 0 mm 1 mps 743 mmHg 77%
    08:00 +20°C° 0 mm 0 mps 743 mmHg 72%
    09:00 +22°C° 0.3 mm 0 mps 743 mmHg 66%
    10:00 +23°C° 0.3 mm 0 mps 743 mmHg 59%
    11:00 +24°C° 0.3 mm 0 mps 743 mmHg 53%
    12:00 +26°C° 0 mm 1 mps 742 mmHg 53%
    13:00 +26°C° 0 mm 1 mps 742 mmHg 52%
    14:00 +26°C° 0 mm 1 mps 742 mmHg 52%
    15:00 +26°C° 0.2 mm 1 mps 742 mmHg 54%
    16:00 +26°C° 0.2 mm 1 mps 742 mmHg 57%
    17:00 +26°C° 0.2 mm 1 mps 742 mmHg 59%
    18:00 +24°C° 0.4 mm 1 mps 742 mmHg 64%
    19:00 +23°C° 0.4 mm 2 mps 742 mmHg 70%
    20:00 +20°C° 0.4 mm 2 mps 742 mmHg 75%
    21:00 +20°C° 0.8 mm 1 mps 742 mmHg 78%
    22:00 +19°C° 0.8 mm 1 mps 742 mmHg 81%
    23:00 +17°C° 0.8 mm 0 mps 742 mmHg 84%

    Pasado mañana, 25 Mayo, Sábado

    Tiempo Temperatura Precipitaciones Viento Presión Humedad
    00:00 +18°C° 0 mm 1 mps 742 mmHg 85%
    01:00 +18°C° 0 mm 1 mps 742 mmHg 86%
    02:00 +18°C° 0 mm 1 mps 741 mmHg 86%
    03:00 +18°C° 0 mm 1 mps 741 mmHg 87%
    04:00 +17°C° 0 mm 2 mps 741 mmHg 87%
    05:00 +17°C° 0 mm 2 mps 741 mmHg 87%
    06:00 +18°C° 0.3 mm 2 mps 741 mmHg 82%
    07:00 +20°C° 0.3 mm 2 mps 741 mmHg 78%
    08:00 +22°C° 0.3 mm 1 mps 741 mmHg 73%
    09:00 +23°C° 0.8 mm 2 mps 741 mmHg 69%
    10:00 +24°C° 0.8 mm 2 mps 740 mmHg 65%
    11:00 +25°C° 0.8 mm 2 mps 740 mmHg 61%
    12:00 +25°C° 0.3 mm 2 mps 740 mmHg 61%
    13:00 +25°C° 0.3 mm 2 mps 740 mmHg 61%
    14:00 +25°C° 0.3 mm 3 mps 739 mmHg 61%
    15:00 +25°C° 0.4 mm 3 mps 739 mmHg 65%
    16:00 +24°C° 0.4 mm 3 mps 739 mmHg 68%
    17:00 +24°C° 0.4 mm 3 mps 739 mmHg 71%
    18:00 +21°C° 0.2 mm 2 mps 738 mmHg 76%
    19:00 +20°C° 0.2 mm 2 mps 738 mmHg 81%
    20:00 +18°C° 0.2 mm 2 mps 738 mmHg 86%
    21:00 +18°C° 0 mm 2 mps 738 mmHg 87%
    22:00 +17°C° 0 mm 2 mps 738 mmHg 89%
    23:00 +16°C° 0 mm 2 mps 738 mmHg 90%

    26 Mayo, Domingo

    Tiempo Temperatura Precipitaciones Viento Presión Humedad
    00:00 +16°C° 0 mm 2 mps 738 mmHg 92%
    01:00 +16°C° 0 mm 2 mps 738 mmHg 93%
    02:00 +14°C° 0 mm 3 mps 738 mmHg 95%
    03:00 +14°C° 0 mm 3 mps 738 mmHg 94%
    04:00 +14°C° 0 mm 4 mps 738 mmHg 94%
    05:00 +15°C° 0 mm 4 mps 738 mmHg 93%
    06:00 +17°C° 0 mm 4 mps 739 mmHg 88%
    07:00 +18°C° 0 mm 4 mps 739 mmHg 84%
    08:00 +19°C° 0 mm 4 mps 739 mmHg 79%
    09:00 +20°C° 0 mm 5 mps 740 mmHg 74%
    10:00 +20°C° 0 mm 5 mps 740 mmHg 70%
    11:00 +21°C° 0 mm 5 mps 740 mmHg 65%
    12:00 +21°C° 0 mm 5 mps 740 mmHg 63%
    13:00 +21°C° 0 mm 5 mps 740 mmHg 61%
    14:00 +22°C° 0 mm 5 mps 740 mmHg 58%
    15:00 +21°C° 0 mm 5 mps 740 mmHg 60%
    16:00 +21°C° 0 mm 4 mps 740 mmHg 62%
    17:00 +21°C° 0 mm 4 mps 740 mmHg 64%
    18:00 +19°C° 0 mm 3 mps 740 mmHg 68%
    19:00 +18°C° 0 mm 3 mps 740 mmHg 73%
    20:00 +16°C° 0 mm 2 mps 740 mmHg 77%
    21:00 +16°C° 0 mm 3 mps 740 mmHg 76%
    22:00 +15°C° 0 mm 4 mps 740 mmHg 76%
    23:00 +15°C° 0 mm 5 mps 740 mmHg 75%

    27 Mayo, Lunes

    Tiempo Temperatura Precipitaciones Viento Presión Humedad
    00:00 +14°C° 0.5 mm 5 mps 740 mmHg 81%
    01:00 +13°C° 0.5 mm 5 mps 740 mmHg 86%
    02:00 +13°C° 0.5 mm 5 mps 740 mmHg 91%
    03:00 +12°C° 0.2 mm 5 mps 741 mmHg 91%
    04:00 +10°C° 0.2 mm 5 mps 741 mmHg 92%
    05:00 +9°C° 0.2 mm 5 mps 742 mmHg 92%
    06:00 +10°C° 0 mm 5 mps 742 mmHg 86%
    07:00 +10°C° 0 mm 6 mps 743 mmHg 81%
    08:00 +11°C° 0 mm 6 mps 743 mmHg 75%
    09:00 +13°C° 0 mm 6 mps 744 mmHg 71%
    10:00 +14°C° 0 mm 6 mps 744 mmHg 67%
    11:00 +14°C° 0 mm 6 mps 745 mmHg 63%
    12:00 +14°C° 0 mm 6 mps 745 mmHg 64%
    13:00 +15°C° 0 mm 6 mps 745 mmHg 65%
    14:00 +15°C° 0 mm 5 mps 745 mmHg 66%
    15:00 +15°C° 0 mm 5 mps 746 mmHg 66%
    16:00 +15°C° 0 mm 4 mps 746 mmHg 65%
    17:00 +17°C° 0 mm 4 mps 746 mmHg 65%
    18:00 +16°C° 0 mm 3 mps 746 mmHg 71%
    19:00 +13°C° 0 mm 3 mps 746 mmHg 76%
    20:00 +13°C° 0 mm 2 mps 747 mmHg 82%
    21:00 +12°C° 0 mm 2 mps 747 mmHg 84%
    22:00 +11°C° 0 mm 3 mps 747 mmHg 86%
    23:00 +10°C° 0 mm 3 mps 747 mmHg 88%

    28 Mayo, Martes

    Tiempo Temperatura Precipitaciones Viento Presión Humedad
    00:00 +10°C° 0 mm 3 mps 747 mmHg 89%
    01:00 +10°C° 0 mm 3 mps 748 mmHg 90%
    02:00 +10°C° 0 mm 3 mps 748 mmHg 91%
    03:00 +10°C° 0 mm 3 mps 748 mmHg 91%
    04:00 +10°C° 0 mm 3 mps 748 mmHg 90%
    05:00 +11°C° 0 mm 3 mps 748 mmHg 90%
    06:00 +13°C° 0 mm 3 mps 748 mmHg 85%
    07:00 +15°C° 0 mm 4 mps 748 mmHg 80%
    08:00 +17°C° 0 mm 5 mps 748 mmHg 75%
    09:00 +19°C° 0 mm 5 mps 748 mmHg 71%
    10:00 +20°C° 0 mm 5 mps 748 mmHg 68%
    11:00 +21°C° 0 mm 6 mps 747 mmHg 65%
    12:00 +21°C° 0 mm 6 mps 747 mmHg 65%
    13:00 +22°C° 0 mm 6 mps 746 mmHg 66%
    14:00 +22°C° 0 mm 6 mps 746 mmHg 67%
    15:00 +22°C° 0 mm 6 mps 746 mmHg 69%
    16:00 +23°C° 0 mm 6 mps 745 mmHg 71%
    17:00 +23°C° 0 mm 6 mps 745 mmHg 74%
    18:00 +22°C° 0 mm 6 mps 745 mmHg 77%
    19:00 +21°C° 0 mm 5 mps 745 mmHg 81%
    20:00 +20°C° 0 mm 5 mps 744 mmHg 84%
    21:00 +21°C° 0 mm 5 mps 745 mmHg 82%
    22:00 +21°C° 0 mm 6 mps 745 mmHg 79%
    23:00 +21°C° 0 mm 6 mps 745 mmHg 77%
    Mostrar más